Terug naar catalogus

STARLINK-34094

ActiefCommunicatieVLEO
NORAD 63822·PAYLOAD·🇺🇸 United States

Gelanceerd May 4, 2025 vanaf Cape Canaveral Space Force Station

Loading…

Volgende Passages (komende 24 uur)

TLE

VersSource: CelesTrak SupGP

Epoch: Sep 15, 2026, 02:58 UTC

1 63822C 25092U   26258.12409722 -.00026737  00000+0 -96857-3 0  2581
2 63822  43.0001 179.5090 0001298 278.8258  56.8782 15.27586481    16

Volg STARLINK-34094 in realtime met AllMySat

Download on the App Store